TimeCST,TemperatureF,Dew PointF,Humidity,Sea Level PressureIn,VisibilityMPH,Wind Direction,Wind SpeedMPH,Gust SpeedMPH,PrecipitationIn,Events,Conditions,WindDirDegrees,DateUTC
12:15 AM,1.4,-9.4,61,30.50,10.0,NNW,4.6,-,N/A,,Clear,340,2014-02-11 06:15:00
12:35 AM,1.4,-9.4,61,30.48,10.0,Calm,Calm,-,N/A,,Clear,0,2014-02-11 06:35:00
12:55 AM,-0.4,-9.4,66,30.48,10.0,Calm,Calm,-,N/A,,Clear,0,2014-02-11 06:55:00
1:15 AM,-0.4,-9.4,66,30.47,10.0,North,3.5,-,N/A,,Clear,350,2014-02-11 07:15:00
1:35 AM,-0.4,-9.4,66,30.47,10.0,North,3.5,-,N/A,,Clear,360,2014-02-11 07:35:00
1:55 AM,-0.4,-9.4,66,30.47,10.0,North,4.6,-,N/A,,Clear,360,2014-02-11 07:55:00
2:15 AM,-2.2,-11.2,66,30.48,10.0,North,3.5,-,N/A,,Clear,350,2014-02-11 08:15:00
2:35 AM,-4.0,-13.0,65,30.48,10.0,NNW,3.5,-,N/A,,Clear,340,2014-02-11 08:35:00
2:55 AM,-5.8,-13.0,71,30.48,10.0,NNW,4.6,-,N/A,,Clear,340,2014-02-11 08:55:00
3:15 AM,-4.0,-11.2,71,30.48,10.0,North,3.5,-,N/A,,Clear,360,2014-02-11 09:15:00
3:35 AM,-4.0,-11.2,71,30.50,10.0,North,3.5,-,N/A,,Clear,360,2014-02-11 09:35:00
3:55 AM,-4.0,-13.0,65,30.50,10.0,Calm,Calm,-,N/A,,Clear,0,2014-02-11 09:55:00
4:15 AM,-4.0,-11.2,71,30.50,10.0,North,3.5,-,N/A,,Clear,360,2014-02-11 10:15:00
4:35 AM,-4.0,-11.2,71,30.50,10.0,North,3.5,-,N/A,,Clear,10,2014-02-11 10:35:00
4:55 AM,-4.0,-11.2,71,30.51,10.0,Calm,Calm,-,N/A,,Clear,0,2014-02-11 10:55:00
5:15 AM,-5.8,-13.0,71,30.52,10.0,NNW,3.5,-,N/A,,Clear,340,2014-02-11 11:15:00
5:35 AM,-5.8,-11.2,77,30.51,10.0,Calm,Calm,-,N/A,,Scattered Clouds,0,2014-02-11 11:35:00
5:55 AM,-5.8,-11.2,77,30.51,10.0,Calm,Calm,-,N/A,,Mostly Cloudy,0,2014-02-11 11:55:00
6:15 AM,-5.8,-13.0,71,30.50,10.0,Calm,Calm,-,N/A,,Scattered Clouds,0,2014-02-11 12:15:00
6:35 AM,-5.8,-13.0,71,30.50,10.0,Calm,Calm,-,N/A,,Scattered Clouds,0,2014-02-11 12:35:00
6:55 AM,-7.6,-14.8,71,30.50,10.0,Calm,Calm,-,N/A,,Clear,0,2014-02-11 12:55:00
7:15 AM,-5.8,-11.2,77,30.51,10.0,Calm,Calm,-,N/A,,Clear,0,2014-02-11 13:15:00
7:35 AM,-7.6,-13.0,77,30.51,10.0,Calm,Calm,-,N/A,,Clear,0,2014-02-11 13:35:00
7:55 AM,-4.0,-11.2,71,30.52,10.0,Calm,Calm,-,N/A,,Clear,0,2014-02-11 13:55:00
8:15 AM,-4.0,-9.4,78,30.52,10.0,Calm,Calm,-,N/A,,Clear,0,2014-02-11 14:15:00
8:35 AM,-0.4,-9.4,66,30.52,10.0,Calm,Calm,-,N/A,,Clear,0,2014-02-11 14:35:00
8:55 AM,3.2,-7.6,61,30.52,10.0,Calm,Calm,-,N/A,,Clear,0,2014-02-11 14:55:00
9:15 AM,3.2,-9.4,56,30.52,10.0,Calm,Calm,-,N/A,,Clear,0,2014-02-11 15:15:00
9:35 AM,5.0,-7.6,56,30.52,10.0,Calm,Calm,-,N/A,,Clear,0,2014-02-11 15:35:00
9:55 AM,5.0,-7.6,56,30.53,10.0,West,3.5,-,N/A,,Clear,270,2014-02-11 15:55:00
10:15 AM,5.0,-7.6,56,30.53,10.0,WNW,4.6,-,N/A,,Clear,300,2014-02-11 16:15:00
10:55 AM,8.6,-7.6,48,30.53,10.0,WNW,3.5,-,N/A,,Clear,300,2014-02-11 16:55:00
11:15 AM,8.6,-7.6,48,30.52,10.0,Calm,Calm,-,N/A,,Clear,0,2014-02-11 17:15:00
11:35 AM,10.4,-5.8,48,30.51,10.0,Calm,Calm,-,N/A,,Clear,0,2014-02-11 17:35:00
11:55 AM,14.0,-5.8,41,30.50,10.0,Calm,Calm,-,N/A,,Clear,0,2014-02-11 17:55:00
12:15 PM,14.0,-5.8,41,30.48,10.0,West,3.5,-,N/A,,Clear,260,2014-02-11 18:15:00
12:35 PM,15.8,-5.8,38,30.47,10.0,SSW,3.5,-,N/A,,Clear,210,2014-02-11 18:35:00
12:55 PM,17.6,-5.8,35,30.46,10.0,Calm,Calm,-,N/A,,Clear,0,2014-02-11 18:55:00
1:15 PM,21.2,-4.0,33,30.43,10.0,SE,3.5,-,N/A,,Clear,140,2014-02-11 19:15:00
1:35 PM,21.2,-5.8,30,30.43,10.0,Calm,Calm,-,N/A,,Clear,0,2014-02-11 19:35:00
1:55 PM,19.4,-4.0,36,30.43,10.0,Calm,Calm,-,N/A,,Scattered Clouds,0,2014-02-11 19:55:00
2:15 PM,19.4,-2.2,39,30.42,10.0,NNW,3.5,-,N/A,,Overcast,340,2014-02-11 20:15:00
2:35 PM,17.6,-2.2,42,30.42,10.0,NW,3.5,-,N/A,,Overcast,320,2014-02-11 20:35:00
2:55 PM,19.4,-0.4,42,30.41,10.0,East,3.5,-,N/A,,Overcast,80,2014-02-11 20:55:00
3:15 PM,19.4,-2.2,39,30.40,10.0,ENE,4.6,-,N/A,,Overcast,60,2014-02-11 21:15:00
3:35 PM,19.4,-4.0,36,30.40,10.0,ENE,3.5,-,N/A,,Scattered Clouds,70,2014-02-11 21:35:00
3:55 PM,19.4,-4.0,36,30.39,10.0,East,4.6,-,N/A,,Mostly Cloudy,90,2014-02-11 21:55:00
4:55 PM,17.6,-4.0,38,30.38,10.0,East,3.5,-,N/A,,Overcast,90,2014-02-11 22:55:00
5:15 PM,15.8,-2.2,45,30.36,10.0,East,3.5,-,N/A,,Overcast,100,2014-02-11 23:15:00
5:35 PM,17.6,-2.2,42,30.36,10.0,Calm,Calm,-,N/A,,Overcast,0,2014-02-11 23:35:00
5:55 PM,15.8,-2.2,45,30.36,10.0,Calm,Calm,-,N/A,,Overcast,0,2014-02-11 23:55:00
6:15 PM,14.0,-2.2,49,30.36,10.0,Calm,Calm,-,N/A,,Mostly Cloudy,0,2014-02-12 00:15:00
6:35 PM,14.0,-0.4,53,30.35,10.0,Calm,Calm,-,N/A,,Scattered Clouds,0,2014-02-12 00:35:00
6:55 PM,12.2,-0.4,57,30.35,10.0,Calm,Calm,-,N/A,,Clear,0,2014-02-12 00:55:00
7:15 PM,10.4,-2.2,57,30.35,10.0,ESE,3.5,-,N/A,,Clear,110,2014-02-12 01:15:00
7:35 PM,10.4,-2.2,57,30.35,10.0,ESE,3.5,-,N/A,,Clear,110,2014-02-12 01:35:00
7:55 PM,12.2,-0.4,57,30.35,10.0,ESE,3.5,-,N/A,,Clear,110,2014-02-12 01:55:00
8:15 PM,12.2,-0.4,57,30.35,10.0,ESE,3.5,-,N/A,,Clear,110,2014-02-12 02:15:00
8:35 PM,12.2,-0.4,57,30.36,10.0,East,3.5,-,N/A,,Clear,100,2014-02-12 02:35:00
8:55 PM,12.2,-2.2,53,30.36,10.0,SE,3.5,-,N/A,,Clear,130,2014-02-12 02:55:00
9:15 PM,10.4,-4.0,52,30.35,10.0,SE,4.6,-,N/A,,Clear,130,2014-02-12 03:15:00
9:35 PM,10.4,-4.0,52,30.35,10.0,SE,4.6,-,N/A,,Clear,130,2014-02-12 03:35:00
9:55 PM,10.4,-4.0,52,30.33,10.0,SE,5.8,-,N/A,,Clear,130,2014-02-12 03:55:00
10:15 PM,12.2,-4.0,48,30.33,10.0,SE,5.8,-,N/A,,Clear,140,2014-02-12 04:15:00
10:35 PM,10.4,-4.0,52,30.32,10.0,SE,6.9,-,N/A,,Clear,140,2014-02-12 04:35:00
10:55 PM,12.2,-4.0,48,30.31,10.0,SE,9.2,-,N/A,,Clear,140,2014-02-12 04:55:00
11:15 PM,12.2,-4.0,48,30.30,10.0,SE,6.9,-,N/A,,Clear,140,2014-02-12 05:15:00
11:35 PM,10.4,-4.0,52,30.30,10.0,SE,4.6,-,N/A,,Clear,140,2014-02-12 05:35:00
11:55 PM,12.2,-2.2,53,30.30,10.0,SSE,8.1,-,N/A,,Clear,150,2014-02-12 05:55:00